Location: McMath-Hulbert Observatory
(42.6964°N, 83.3187°W)
Time: 03:21:39
(UTC-05:00)

ISS - Visible Passes

Search period start: 12 December 2017 00:00
Search period end: 22 December 2017 00:00
Orbit: 403 x 407 km, 51.6° (Epoch: 12 December)

Date Brightness Start Highest point End Pass type
(mag) Time Alt. Az. Time Alt. Az. Time Alt. Az.
12 Dec -2.4 17:31:02 10° NW 17:33:45 23° NNE 17:36:28 10° ENE visible
12 Dec -2.6 19:07:16 10° WNW 19:09:28 39° WNW 19:09:28 39° WNW visible
13 Dec -3.7 18:15:05 10° NW 18:18:19 55° NNE 18:19:55 26° E visible
13 Dec -0.4 19:52:08 10° W 19:52:38 12° W 19:52:38 12° W visible
14 Dec -2.3 18:59:27 10° WNW 19:02:29 35° SW 19:03:22 29° S visible
15 Dec -3.5 18:07:03 10° WNW 18:10:20 67° SW 18:13:34 10° SE visible
16 Dec -0.8 18:52:10 10° W 18:54:13 15° SW 18:56:14 10° S visible
17 Dec -1.6 17:59:16 10° WNW 18:02:08 28° SW 18:05:00 10° SSE visible
19 Dec -0.3 17:52:18 10° WSW 17:53:45 12° SW 17:55:12 10° SSW visible
